Home   Weather   Ajax   Past weeks

Flag for Canada Past Weather in Ajax, Ontario, Canada — Yesterday and Last 2 Weeks

30 °F

Passing clouds.

Feels Like: 27 °F
Forecast: 29 / 42 °F
Wind: 3 mph from Northwest

Location: Toronto Buttonville

Current Time: Oct 26, 2016 at 7:30:06 AM

Latest Report: Oct 26, 2016 at 7:00 AM

Visibility: 15 mi

Pressure: 30.51 "Hg

Humidity: 75%

Dew Point: 23 °F

Location of AjaxLocation

Past Weather in Ajax — Graph


Ajax Temperature Yesterday

Maximum temperature yesterday: 45 °F (at 1:00 PM)
Minimum temperature yesterday: 37 °F (at 7:00 AM)
Average temperature yesterday: 40 °F

High & Low Weather Summary for the Past Weeks

High75 °F (Oct 18, 12:00 PM)100% (Oct 17, 3:50 AM)30.50 "Hg (Oct 17, 3:50 AM)
Low30 °F (Oct 26, 6:00 AM)43% (Oct 19, 3:00 PM)29.54 "Hg (Oct 18, 2:00 PM)
Average53 °F76%30.03 "Hg
* Reported Oct 11 6:00 AM — Oct 26 6:00 AM, Ajax, Weather by CustomWeather, © 2016

Note: Actual official high and low records may vary slightly from our data, if they occured in-between our weather recording intervals... More about our weather records


Ajax Weather History for the Previous 24 Hours

Scroll right to see more
Time TempWeatherWind HumidityBarometerVisibility
6:00 AM
Wed, Oct 26
30 °FPassing clouds.5 mph75%30.50 "Hg15 mi
5:00 AM32 °FPassing clouds.3 mph69%30.48 "Hg15 mi
4:00 AM34 °FChilly.2 mph70%30.47 "Hg15 mi
3:00 AM36 °FChilly.2 mph60%30.46 "Hg15 mi
2:00 AM36 °FPassing clouds.No wind65%30.46 "Hg15 mi
1:00 AM36 °FPassing clouds.3 mph60%30.46 "Hg15 mi
12:00 AM37 °FPassing clouds.3 mph56%30.46 "Hg15 mi
11:00 PM
Tue, Oct 25
37 °FPassing clouds.3 mph56%30.45 "Hg15 mi
10:00 PM37 °FPassing clouds.3 mph60%30.45 "Hg15 mi
9:00 PM37 °FPassing clouds.5 mph60%30.44 "Hg15 mi
8:00 PM39 °FPassing clouds.6 mph56%30.43 "Hg15 mi
7:00 PM37 °FPassing clouds.8 mph60%30.41 "Hg15 mi
6:00 PM39 °FScattered clouds.12 mph56%30.39 "Hg15 mi
5:00 PM41 °FScattered clouds.17 mph53%30.38 "Hg15 mi
4:00 PM43 °FScattered clouds.16 mph53%30.36 "Hg15 mi
3:00 PM45 °FPartly sunny.14 mph53%30.36 "Hg15 mi
2:00 PM45 °FPartly sunny.14 mph53%30.35 "Hg15 mi
1:00 PM45 °FPartly sunny.12 mph57%30.35 "Hg15 mi
12:00 PM43 °FBroken clouds.10 mph61%30.35 "Hg15 mi
11:00 AM41 °FPartly sunny.10 mph66%30.34 "Hg15 mi
10:00 AM41 °FScattered showers. Broken clouds.10 mph66%30.34 "Hg15 mi
9:00 AM39 °FScattered showers. Passing clouds.7 mph70%30.33 "Hg15 mi
8:00 AM37 °FScattered clouds.6 mph81%30.31 "Hg15 mi
7:00 AM37 °FOvercast.13 mph81%30.30 "Hg15 mi
Weather by CustomWeather, © 2016

See weather overviewHow to use our weather pages